Flag for Slovakia Weather past 2 weeks in Prešov, Slovakia

Now
36 °F

Broken clouds.


Feels Like: 28 °F
Forecast: 23 / 35 °F
Wind: 10 mph from Northeast

Location: Kosice - Barca

Current Time: Jan 26, 2015 at 12:13:00 PM

Latest Report: Jan 26, 2015 at 11:30 AM


Visibility: N/A

Pressure: 30.21 "Hg

Humidity: 75%

Dew point: 28 °F

Location of PrešovLocation

Historic Weather in Prešov — Graph

°F

Prešov temperature yesterday

Maximum temperature yesterday: 39 °F (at 2:00 AM)
Minimum temperature yesterday: 32 °F (at 8:30 PM)
Average temperature yesterday: 35 °F

Past Weeks' High & Low Weather Summary

 TemperatureHumidityPressure
High45 °F (Jan 23, 10:30 AM)100% (Jan 11, 12:30 PM)30.21 "Hg (Jan 11, 12:30 PM)
Low25 °F (Jan 12, 5:30 AM)61% (Jan 17, 1:00 PM)29.71 "Hg (Jan 11, 12:30 PM)
Average36 °F87%30.00 "Hg
* Reported Jan 11 11:00 AM — Jan 26 11:00 AM, Prešov, Weather by CustomWeather, © 2014

Note: Actual official high and low records may vary slightly from our data, if they occured in-between our weather recording intervals... More about our weather records

Advertising

Prešov weather history for previous 24 hours

 ConditionsComfort  
Time TempWeatherWind HumidityBarometerVisibility
11:00 AM
Jan 26
34 °FPartly sunny.10 mph81%30.21 "HgN/A
10:30 AM34 °FPartly sunny.12 mph75%30.21 "HgN/A
10:00 AM34 °FPartly sunny.13 mph75%30.21 "HgN/A
9:30 AM34 °FBroken clouds.10 mph75%30.21 "HgN/A
9:00 AM34 °FPartly sunny.10 mph75%30.21 "HgN/A
8:30 AM34 °FSunny.10 mph75%30.21 "Hg10 mi
8:00 AM32 °FSunny.9 mph75%30.18 "Hg10 mi
7:30 AM32 °FSunny.12 mph80%30.18 "Hg10 mi
7:00 AM30 °FClear.10 mph86%30.18 "Hg10 mi
6:30 AM30 °FClear.10 mph80%30.18 "Hg10 mi
6:00 AM30 °FClear.10 mph80%30.15 "Hg10 mi
5:30 AM30 °FPartly cloudy.10 mph80%30.15 "HgN/A
5:00 AM32 °FPartly cloudy.10 mph75%30.15 "HgN/A
4:30 AM32 °FClear.12 mph75%30.15 "Hg10 mi
4:00 AM32 °FClear.14 mph75%30.15 "Hg10 mi
3:30 AM32 °FClear.15 mph75%30.15 "Hg10 mi
3:00 AM32 °FClear.17 mph69%30.12 "Hg10 mi
2:30 AM32 °FClear.13 mph69%30.15 "Hg10 mi
2:00 AM32 °FClear.13 mph69%30.15 "Hg10 mi
1:30 AM32 °FClear.15 mph69%30.15 "Hg10 mi
1:00 AM32 °FClear.17 mph69%30.12 "Hg10 mi
12:30 AM32 °FPartly cloudy.16 mph69%30.12 "HgN/A
12:00 AM32 °FPartly cloudy.13 mph69%30.12 "HgN/A
11:30 PM
Jan 25
32 °FPartly cloudy.14 mph69%30.12 "HgN/A
11:00 PM32 °FPartly cloudy.15 mph69%30.12 "HgN/A
10:30 PM34 °FPassing clouds.16 mph65%30.12 "HgN/A
10:00 PM32 °FClear.15 mph69%30.09 "Hg10 mi
9:30 PM32 °FClear.15 mph75%30.09 "Hg10 mi
9:00 PM32 °FClear.16 mph69%30.09 "Hg10 mi
8:30 PM32 °FClear.17 mph69%30.07 "Hg10 mi
8:00 PM34 °FClear.17 mph65%30.07 "Hg10 mi
7:30 PM34 °FClear.17 mph65%30.07 "Hg10 mi
7:00 PM34 °FClear.17 mph65%30.07 "Hg10 mi
6:30 PM34 °FClear.16 mph65%30.07 "Hg10 mi
6:00 PM34 °FClear.17 mph70%30.07 "Hg10 mi
5:30 PM34 °FClear.16 mph70%30.04 "Hg10 mi
5:00 PM34 °FClear.15 mph70%30.04 "Hg10 mi
4:30 PM34 °FClear.16 mph70%30.04 "Hg6 mi
4:00 PM34 °FClear.16 mph75%30.01 "Hg5 mi
3:30 PM34 °FLight snow. More clouds than sun.16 mph81%30.01 "Hg4 mi
3:00 PM34 °FLight snow. Overcast.15 mph81%30.01 "Hg3 mi
2:30 PM34 °FLight snow. Overcast.16 mph81%30.01 "Hg4 mi
2:00 PM34 °FLow clouds.16 mph81%29.98 "Hg4 mi
1:30 PM34 °FOvercast.16 mph87%29.98 "Hg5 mi
1:00 PM36 °FOvercast.15 mph81%29.98 "Hg4 mi
12:30 PM36 °FPartly sunny.16 mph75%29.98 "Hg4 mi
12:00 PM36 °FPartly sunny.18 mph75%29.98 "HgN/A
Weather by CustomWeather, © 2014

See weather overviewHow to use our weather pages